Temp
76 77 79 80 79 79 79 79 79 79 78 78 78 78 78 78 78 78 78 78 78 79 80 80 79 79 79 79 79 78 78 78 78 79 79 79 80 80 79 78 78 79 79
80 78 79 79 79 79 79 79 79 78 78 78 78 78 78 78 78 78 78 78 78 80 80 80 79 79 79 79 79 78 78 78 78 79 79 78 79 80 80 80 79 78 77
78 77 78 79 79 79 79 79 78 78 78 78 78 78 78 78 78 78 78 78 79 80 80 80 80 79 79 79 78 78 77 77 77 78 79 72 75 79 80 80 79 78 78
78 76 77 79 79 79 79 78 78 78 78 78 78 78 78 78 78 78 78 78 79 80 80 80 80 79 79 78 78 77 77 77 77 78 73 74 76 79 79 79 79 78 78
77 76 76 79 79 79 79 78 78 78 78 78 78 78 78 77 77 77 78 78 79 80 80 80 80 79 78 78 77 77 77 77 77 78 73 72 70 79 79 79 79 79 78
78 78 78 78 78 78 78 78 78 78 78 78 78 78 77 77 77 76 77 78 79 80 80 80 79 78 78 78 77 77 76 76 77 74 74 76 73 78 79 79 79 78 77
77 77 77 78 78 78 78 78 78 78 77 77 78 77 77 77 76 76 77 78 78 79 79 79 78 77 77 77 77 76 76 77 74 72 73 74 73 76 79 78 78 78 77
78 76 76 78 78 78 78 78 77 77 77 77 77 77 77 76 76 76 77 77 78 78 78 78 77 77 76 76 76 76 76 77 76 71 72 72 74 76 79 78 77 77 77
79 76 75 76 77 78 77 77 77 76 76 76 76 76 76 76 76 76 76 77 77 77 77 77 77 76 76 76 76 76 76 76 72 69 73 72 76 77 79 78 78 78 77
74 76 74 73 75 74 74 77 76 76 76 76 76 76 76 76 76 76 75 76 76 76 76 76 76 76 76 75 75 75 76 76 71 69 69 70 76 78 79 78 78 78 77
77 74 73 72 72 72 72 75 76 77 76 76 76 76 74 72 72 73 74 75 76 76 76 76 76 76 75 75 75 75 76 69 69 68 69 74 76 79 79 78 78 77 77
76 73 72 72 71 71 77 73 71 73 73 72 72 71 71 68 68 72 73 75 76 76 76 76 76 75 75 69 69 74 71 70 69 69 70 76 76 79 79 78 78 77 77
80 78 75 72 73 73 76 72 71 71 70 70 70 69 68 68 67 70 66 71 69 74 71 73 71 71 69 68 68 67 69 70 69 70 73 76 76 79 79 78 77 77 77
77 81 78 75 73 72 77 73 72 71 70 69 69 68 67 65 65 65 66 67 66 68 67 67 67 68 68 68 68 68 69 70 70 72 70 76 76 77 79 78 78 76 76
78 78 77 79 76 76 76 75 72 72 71 71 69 69 69 67 66 67 68 66 66 65 67 66 65 67 67 67 68 69 71 72 72 71 68 76 75 76 78 78 78 77 77
78 79 81 77 74 76 77 76 75 73 73 70 71 70 70 69 68 68 68 67 66 67 67 67 66 66 67 68 68 70 72 71 71 70 69 71 75 75 76 77 77 77 77
78 78 77 80 82 82 79 75 75 75 75 73 73 71 71 71 69 69 69 68 67 67 67 67 65 67 66 68 68 70 69 71 71 71 69 68 71 74 74 76 77 77 77
80 79 80 85 81 79 81 78 77 76 76 75 74 72 71 71 70 69 69 69 68 68 68 68 66 66 67 67 68 66 68 69 71 70 69 69 67 68 73 75 76 76 77
79 82 83 82 81 79 80 80 79 77 76 76 74 73 72 72 71 70 70 69 67 68 69 68 67 67 66 66 65 66 66 67 68 70 69 68 69 67 67 72 74 75 75
79 78 77 82 81 81 79 76 75 71 75 72 74 75 73 72 72 70 71 69 69 69 68 67 68 66 64 68 69 68 66 66 67 69 67 67 66 68 65 66 69 71 74
75 71 72 70 72 75 71 71 72 75 74 69 71 74 73 74 73 70 71 70 70 71 69 68 65 64 64 65 63 62 64 65 66 66 66 65 66 67 65 66 65 65 66
75 74 71 72 76 75 79 78 73 75 67 75 74 71 73 73 74 72 71 69 71 71 67 66 67 62 65 64 62 63 61 62 62 64 64 64 64 64 65 66 65 65 65
71 72 71 74 75 76 76 70 68 67 66 67 68 68 71 71 73 73 71 72 71 72 70 68 67 66 62 62 66 64 59 56 58 62 62 62 62 62 62 64 65 65 64
72 71 72 73 74 74 69 71 71 75 70 68 69 67 70 70 71 72 71 71 71 71 67 67 67 68 67 63 64 65 64 61 59 56 61 62 61 62 62 62 63 64 64
72 69 70 72 70 71 73 75 72 67 68 64 65 67 67 67 71 72 71 71 68 67 66 66 65 67 65 64 63 63 63 62 61 59 58 56 59 60 61 62 62 62 63
70 70 68 68 71 71 69 68 69 67 65 64 64 65 65 66 67 70 70 70 68 68 67 66 67 67 65 65 64 63 63 62 59 58 53 54 56 58 60 60 61 62 62
MSLP
1006.88 1006.91 1007.08 1007.12 1007.25 1007.78 1008.37 1008.92 1009.53 1009.76 1010.22 1010.79 1010.98 1011.22 1011.51 1011.82 1012.03 1012.34 1012.59 1012.87 1013.09 1013.23 1013.41 1013.52 1013.74 1013.87 1013.94 1014.04 1014.16 1014.26 1014.27 1014.20 1014.19 1014.16 1014.12 1014.15 1014.19 1014.20 1014.27 1014.21 1014.21 1014.37 1014.56
1005.69 1006.68 1007.05 1007.17 1007.39 1007.62 1008.27 1008.71 1009.47 1010.06 1010.30 1010.71 1010.95 1011.21 1011.57 1011.95 1012.08 1012.50 1012.69 1012.90 1013.17 1013.37 1013.53 1013.66 1013.86 1013.98 1013.99 1014.10 1014.14 1014.30 1014.27 1014.21 1014.24 1014.25 1014.36 1014.33 1014.36 1014.34 1014.24 1014.26 1014.37 1014.51 1014.60
1005.61 1006.49 1007.13 1007.22 1007.37 1007.59 1008.08 1008.64 1009.11 1009.77 1010.23 1010.79 1010.93 1011.14 1011.47 1011.93 1012.22 1012.53 1012.83 1013.03 1013.27 1013.44 1013.67 1013.77 1014.00 1014.03 1013.96 1014.03 1014.17 1014.28 1014.25 1014.26 1014.29 1014.28 1014.32 1014.39 1014.41 1014.39 1014.37 1014.41 1014.34 1014.56 1014.77
1004.85 1006.26 1007.03 1007.25 1007.31 1007.60 1008.00 1008.69 1009.16 1009.66 1009.91 1010.47 1010.85 1011.12 1011.33 1011.69 1012.03 1012.38 1012.68 1012.95 1013.32 1013.41 1013.63 1013.92 1013.98 1014.03 1014.05 1014.10 1014.14 1014.09 1014.20 1014.24 1014.23 1014.25 1014.33 1014.36 1014.40 1014.26 1014.29 1014.40 1014.49 1014.66 1014.76
1004.61 1005.75 1006.56 1007.19 1007.06 1007.38 1007.89 1008.62 1009.15 1009.68 1010.11 1010.33 1010.68 1011.11 1011.28 1011.62 1011.79 1012.10 1012.45 1012.76 1012.90 1013.35 1013.50 1013.76 1013.97 1014.01 1013.97 1013.93 1014.05 1014.10 1014.17 1014.23 1014.30 1014.23 1014.38 1014.21 1014.25 1014.20 1014.31 1014.26 1014.46 1014.73 1014.91
1004.59 1005.38 1006.13 1006.98 1006.89 1007.02 1007.40 1008.03 1008.93 1009.54 1009.95 1010.25 1010.56 1010.98 1011.17 1011.43 1011.77 1011.99 1012.27 1012.61 1012.84 1013.12 1013.44 1013.63 1013.84 1013.91 1013.92 1014.00 1014.15 1014.16 1014.28 1014.30 1014.29 1014.36 1014.39 1014.20 1014.21 1014.14 1014.33 1014.15 1014.28 1014.51 1014.81
1004.47 1005.20 1006.05 1006.78 1006.74 1006.85 1007.29 1007.60 1008.42 1009.23 1009.71 1010.08 1010.42 1010.74 1011.05 1011.34 1011.60 1011.92 1012.17 1012.43 1012.64 1012.95 1013.21 1013.43 1013.64 1013.79 1013.94 1014.09 1014.24 1014.27 1014.19 1014.20 1014.22 1014.33 1014.42 1014.44 1014.32 1014.20 1014.20 1014.26 1014.36 1014.40 1014.57
1003.87 1005.33 1006.20 1006.84 1006.94 1006.95 1007.36 1007.57 1008.12 1008.80 1009.42 1009.92 1010.24 1010.44 1010.70 1010.95 1011.34 1011.65 1011.93 1012.18 1012.37 1012.74 1013.06 1013.23 1013.42 1013.76 1014.01 1014.05 1014.06 1014.14 1014.16 1014.09 1014.07 1014.35 1014.39 1014.29 1014.19 1014.28 1014.17 1014.28 1014.44 1014.50 1014.53
1004.14 1005.38 1006.44 1007.06 1006.90 1007.11 1007.51 1007.74 1008.07 1008.55 1009.17 1009.62 1010.01 1010.19 1010.48 1010.67 1011.10 1011.46 1011.65 1011.94 1012.27 1012.64 1012.95 1013.06 1013.28 1013.57 1013.84 1014.03 1014.11 1014.10 1014.12 1014.00 1013.98 1014.25 1014.37 1014.22 1014.16 1014.37 1014.36 1014.32 1014.36 1014.39 1014.40
1005.13 1005.58 1006.14 1006.76 1006.78 1007.06 1007.53 1007.80 1008.03 1008.32 1008.74 1009.23 1009.73 1010.05 1010.28 1010.53 1010.83 1011.23 1011.49 1011.77 1012.07 1012.39 1012.69 1012.81 1013.03 1013.28 1013.57 1013.83 1014.05 1013.97 1013.96 1013.91 1013.88 1014.03 1014.25 1014.23 1014.11 1014.09 1014.15 1014.16 1014.16 1014.19 1014.26
1005.49 1006.14 1006.52 1006.91 1006.75 1006.76 1007.18 1007.53 1008.08 1008.58 1008.90 1009.16 1009.50 1009.97 1010.27 1010.42 1010.72 1011.15 1011.37 1011.63 1012.00 1012.29 1012.67 1012.72 1012.95 1013.09 1013.33 1013.58 1013.76 1013.83 1013.75 1013.70 1013.94 1013.96 1013.98 1013.84 1013.92 1014.01 1014.08 1014.03 1013.99 1013.98 1014.12
1005.34 1006.27 1006.82 1007.09 1007.06 1006.81 1007.08 1007.36 1007.85 1008.33 1008.69 1009.00 1009.07 1009.55 1010.02 1010.38 1010.62 1011.04 1011.29 1011.47 1011.74 1012.07 1012.38 1012.55 1012.74 1013.00 1013.14 1013.35 1013.56 1013.51 1013.55 1013.63 1013.03 1013.59 1013.75 1013.63 1013.60 1013.76 1013.85 1013.97 1013.90 1013.95 1014.03
1004.76 1005.11 1006.22 1007.28 1007.63 1006.97 1007.14 1007.40 1007.82 1008.08 1008.29 1008.64 1008.78 1009.20 1009.70 1010.18 1010.48 1010.75 1011.15 1011.25 1011.63 1011.84 1012.20 1012.36 1012.50 1012.65 1012.83 1013.05 1013.20 1013.40 1013.52 1013.62 1013.61 1013.47 1013.14 1013.20 1013.48 1013.52 1013.67 1013.81 1013.79 1013.80 1014.00
1003.80 1004.24 1005.26 1006.67 1007.50 1008.14 1007.28 1007.19 1007.38 1007.86 1008.03 1008.16 1008.29 1008.88 1009.38 1009.96 1010.42 1010.68 1010.82 1010.97 1011.24 1011.53 1011.91 1012.09 1012.27 1012.30 1012.48 1012.63 1012.79 1012.98 1013.13 1013.04 1012.71 1012.87 1012.80 1012.68 1012.93 1013.37 1013.49 1013.59 1013.60 1013.62 1013.80
1003.49 1003.99 1004.57 1005.78 1006.47 1007.77 1008.46 1007.41 1007.13 1007.47 1007.55 1007.33 1007.72 1008.27 1008.55 1009.17 1009.66 1010.25 1010.32 1010.47 1010.81 1011.11 1011.48 1011.76 1011.93 1012.10 1012.17 1012.28 1012.31 1012.43 1012.41 1012.41 1012.69 1012.72 1012.76 1012.38 1012.51 1012.93 1013.13 1013.34 1013.40 1013.46 1013.68
1003.21 1003.32 1004.13 1004.31 1003.56 1006.29 1007.01 1007.43 1006.26 1006.91 1007.03 1006.93 1007.02 1007.24 1007.85 1008.23 1008.71 1009.49 1009.77 1010.00 1010.33 1010.54 1010.92 1011.09 1011.43 1011.63 1011.77 1011.90 1011.95 1011.89 1011.99 1012.32 1012.36 1012.38 1012.50 1012.35 1012.31 1012.59 1012.84 1012.98 1013.28 1013.49 1013.63
1002.66 1002.57 1003.20 1002.89 1003.00 1004.28 1006.15 1006.84 1005.80 1006.21 1006.58 1006.34 1006.37 1006.66 1007.07 1007.43 1007.97 1008.75 1009.19 1009.41 1009.60 1009.85 1010.35 1010.66 1011.08 1011.20 1011.43 1011.45 1011.54 1011.80 1011.97 1012.13 1012.05 1011.97 1012.24 1012.35 1012.24 1012.39 1012.64 1012.79 1012.86 1012.94 1013.20
1001.59 1002.29 1002.34 1002.67 1003.79 1004.82 1005.30 1005.26 1004.92 1005.43 1005.57 1005.46 1005.80 1006.05 1006.35 1006.80 1007.15 1007.95 1008.47 1008.67 1008.85 1009.22 1009.78 1010.28 1010.62 1010.85 1010.97 1011.07 1011.09 1011.36 1011.48 1011.67 1011.53 1011.60 1011.74 1011.97 1012.07 1012.26 1012.33 1012.45 1012.37 1012.52 1012.67
1002.51 1001.61 1001.75 1002.21 1002.84 1003.73 1003.60 1003.40 1003.50 1004.04 1004.53 1004.70 1005.02 1005.32 1005.71 1006.12 1006.47 1007.04 1007.55 1007.95 1008.15 1008.73 1009.20 1009.62 1010.06 1010.30 1010.53 1010.57 1010.73 1010.93 1011.05 1011.28 1011.21 1011.09 1011.37 1011.63 1011.47 1011.68 1012.00 1011.95 1011.99 1012.08 1012.26
1001.58 1001.91 1001.84 1000.99 1001.23 1001.55 1002.02 1002.48 1003.12 1003.71 1003.82 1003.92 1004.20 1004.62 1005.10 1005.34 1005.61 1006.23 1006.84 1007.25 1007.55 1008.15 1008.58 1009.11 1009.43 1009.68 1009.84 1010.00 1010.36 1010.62 1010.75 1010.76 1010.78 1010.85 1010.94 1011.02 1011.12 1011.11 1011.66 1011.73 1011.76 1011.85 1012.00
999.84 1001.01 1001.35 1001.87 1000.79 1001.11 1001.74 1002.48 1003.13 1003.23 1003.29 1003.56 1003.78 1003.81 1004.01 1004.53 1004.90 1005.55 1006.16 1006.60 1006.95 1007.27 1007.61 1008.23 1008.90 1009.38 1009.68 1009.69 1010.38 1010.73 1010.73 1010.66 1010.71 1010.74 1010.83 1010.78 1010.79 1010.84 1011.17 1011.25 1011.43 1011.57 1011.85
999.97 999.82 1000.02 1000.47 1000.90 1000.36 1000.52 1000.82 1001.42 1001.99 1002.58 1002.66 1003.09 1003.22 1003.43 1003.79 1004.06 1004.64 1005.19 1005.63 1006.07 1006.59 1007.13 1007.66 1008.13 1008.80 1009.15 1009.37 1010.08 1010.44 1010.83 1011.01 1010.81 1010.67 1010.57 1010.44 1010.52 1010.77 1010.87 1010.94 1011.09 1011.39 1011.55
999.53 999.67 999.59 999.57 999.74 999.82 999.78 1000.74 1001.52 1002.08 1002.48 1002.84 1002.95 1002.89 1002.59 1002.85 1003.32 1003.72 1004.14 1004.81 1005.41 1005.83 1006.30 1006.87 1007.42 1007.98 1008.64 1009.08 1009.08 1009.64 1010.65 1010.98 1011.19 1010.62 1010.40 1010.37 1010.46 1010.63 1010.77 1010.74 1010.84 1011.04 1011.23
998.42 998.45 998.76 999.08 999.32 999.15 999.58 1000.04 1000.53 1000.97 1001.75 1001.68 1001.75 1001.84 1002.00 1002.19 1002.60 1002.94 1003.24 1003.97 1004.66 1005.19 1005.72 1006.30 1006.79 1007.26 1007.77 1008.58 1009.16 1009.21 1009.41 1009.98 1010.98 1011.30 1010.78 1010.61 1010.54 1010.63 1010.79 1010.75 1010.77 1010.75 1010.89
997.59 997.96 998.02 998.02 998.54 998.87 999.17 999.39 999.95 1000.66 1000.72 1000.97 1001.55 1001.78 1001.92 1001.91 1002.05 1002.28 1002.76 1003.52 1004.19 1004.76 1005.23 1005.94 1006.53 1006.93 1007.19 1007.81 1008.46 1009.10 1009.39 1010.00 1010.50 1011.11 1011.42 1011.06 1010.80 1010.71 1010.74 1010.63 1010.56 1010.64 1010.64
996.66 997.02 997.22 997.49 997.70 998.00 998.42 998.82 999.33 999.91 1000.37 1000.98 1001.28 1001.63 1001.67 1001.86 1001.96 1002.01 1002.51 1003.27 1003.93 1004.45 1005.00 1005.60 1006.00 1006.32 1006.85 1007.23 1007.76 1008.26 1008.81 1009.58 1010.40 1010.90 1011.41 1011.41 1011.29 1010.88 1010.77 1010.56 1010.40 1010.40 1010.50
Wind_Speed
9 14 19 20 22 22 20 19 16 16 16 15 16 17 17 16 16 15 14 14 13 13 13 11 9 8 7 7 6 5 5 6 5 5 5 5 5 5 7 8 9 9 10
16 14 19 19 21 23 22 20 18 15 15 15 16 16 16 15 15 14 13 12 11 12 11 11 10 9 8 7 6 4 4 4 4 3 3 3 3 2 2 6 10 8 10
18 14 15 18 21 22 22 21 20 18 16 15 16 16 16 15 15 14 12 11 10 11 10 10 9 9 8 8 6 4 3 2 3 2 0 0 2 1 2 2 10 10 9
20 13 13 18 21 22 22 21 19 18 18 17 16 16 16 15 15 14 13 11 10 10 9 9 9 9 8 7 6 5 3 1 0 1 1 3 5 6 5 5 7 8 9
19 15 13 19 22 22 22 20 19 18 17 17 17 16 16 15 15 14 13 12 12 10 10 9 9 9 9 8 7 5 3 1 3 3 2 4 6 8 8 8 7 7 7
18 15 17 19 21 23 23 22 20 19 18 17 17 17 17 16 14 13 13 12 12 12 11 11 10 9 8 7 6 3 3 5 5 4 4 6 3 11 12 12 11 9 8
17 14 16 20 21 22 22 23 22 20 19 18 18 18 17 15 15 14 13 13 13 12 13 12 10 9 8 7 5 5 5 5 4 3 4 3 5 11 12 11 10 10 10
20 14 13 17 18 20 20 21 22 20 19 18 18 18 17 17 16 15 14 14 13 13 13 12 11 9 8 8 8 7 6 7 5 4 4 5 8 11 11 10 9 9 11
16 15 11 11 14 18 18 18 19 19 18 18 17 17 17 17 16 16 15 15 14 13 13 12 11 10 10 9 8 8 9 9 6 2 4 3 8 10 10 9 10 10 10
8 11 12 10 11 11 11 17 18 19 19 18 17 17 17 17 17 16 15 14 14 14 14 13 12 12 11 10 9 9 10 12 5 2 3 4 10 14 12 11 11 10 10
8 8 9 10 10 11 10 12 15 17 16 16 15 16 13 8 9 11 12 14 14 14 13 13 12 12 11 11 11 11 13 3 4 2 3 8 12 15 13 11 10 10 11
11 8 8 10 11 10 9 9 8 8 8 8 9 9 7 6 6 8 10 14 15 14 14 14 12 12 11 4 3 10 4 5 4 3 3 10 14 16 14 11 11 10 11
10 10 10 6 7 11 9 6 5 5 5 6 8 8 6 5 5 5 3 5 5 12 5 9 7 5 6 4 4 4 4 4 3 3 5 9 14 16 13 12 11 10 10
13 14 13 8 3 7 5 7 8 7 7 6 8 8 6 4 5 5 5 6 5 5 6 5 4 6 6 6 6 6 5 6 5 4 6 11 15 14 14 14 13 12 10
12 10 13 12 9 3 10 7 6 8 8 8 7 9 8 7 7 7 7 6 6 5 7 6 6 7 7 7 6 8 10 8 7 3 3 13 16 17 15 14 14 13 13
8 14 15 16 14 8 11 12 9 8 8 7 8 9 12 9 8 8 7 7 6 7 7 8 8 8 8 7 8 10 11 4 6 5 4 6 15 14 13 14 13 12 12
9 9 9 11 15 22 19 13 8 8 8 8 8 9 13 11 9 9 8 8 7 7 9 7 6 6 5 6 8 7 3 6 6 5 5 4 6 13 13 12 13 13 14
17 14 15 15 17 22 22 15 10 10 9 8 8 7 12 12 10 10 8 8 7 7 8 8 7 7 7 6 7 4 5 6 7 6 5 5 4 4 9 14 15 14 15
11 18 19 20 24 27 21 13 12 12 10 8 7 8 11 12 12 10 9 8 8 8 8 8 7 7 6 6 4 5 5 5 6 4 7 6 7 5 5 11 14 14 13
13 12 9 19 20 18 11 6 4 4 7 6 8 9 11 10 12 11 9 9 9 8 8 6 9 7 4 7 5 5 4 5 4 5 5 4 6 6 4 7 4 6 12
7 11 12 8 10 8 4 6 6 11 8 4 6 10 10 9 11 11 9 9 10 11 10 10 6 6 6 5 4 1 2 4 4 4 4 4 5 5 6 5 5 4 4
11 10 8 13 14 12 11 9 5 8 4 7 7 7 10 12 11 11 11 10 12 9 7 9 10 3 4 5 4 2 1 3 2 4 4 4 5 3 4 6 5 5 5
11 11 10 15 16 15 13 5 3 4 2 3 4 4 7 8 11 13 13 10 10 10 9 9 9 9 5 4 4 5 2 4 1 2 2 2 1 2 3 5 5 6 6
11 10 12 12 14 12 9 8 8 9 7 5 5 3 5 7 9 13 12 11 11 8 7 7 7 6 5 5 1 1 1 5 3 3 2 2 1 3 5 4 4 5 6
8 10 11 12 10 10 11 12 10 6 5 3 2 5 6 4 9 11 11 11 8 5 6 7 6 6 4 4 4 2 2 2 3 3 4 3 2 2 3 4 4 4 5
8 8 9 11 14 12 10 10 11 11 9 5 4 5 4 3 4 8 9 9 7 6 6 5 6 7 6 4 3 3 3 4 3 3 2 3 3 3 2 3 4 4 4
Wind_Direction
183 170 166 157 142 137 135 132 130 126 124 121 119 116 116 116 115 116 115 117 118 122 126 125 124 120 115 113 108 106 103 101 92 84 71 70 92 114 132 145 128 127 127
148 165 167 155 145 139 139 137 135 133 129 130 127 124 121 121 120 120 123 125 127 133 136 135 136 138 133 127 121 120 116 105 87 61 43 29 46 102 129 130 130 140 140
147 161 164 157 148 143 142 141 141 142 140 141 137 133 132 132 131 131 132 133 139 141 142 143 146 146 140 139 144 142 130 113 97 96 352 0 280 193 96 85 144 151 144
147 155 162 163 151 146 144 146 145 148 148 149 145 143 143 144 144 146 147 149 151 150 151 156 158 155 149 154 162 161 179 178 59 250 186 216 233 154 132 120 144 159 151
147 156 161 169 154 149 147 147 149 151 155 153 151 153 152 154 154 155 159 161 161 164 165 169 171 166 166 173 181 183 197 254 278 294 288 248 209 170 162 146 145 151 158
150 155 160 173 158 153 151 151 153 157 161 159 159 161 161 162 161 162 167 169 170 173 179 180 179 179 186 184 197 203 260 291 310 341 350 325 179 170 174 151 149 155 166
152 155 164 175 164 155 157 154 157 164 166 167 166 166 168 167 167 172 175 178 179 182 188 189 187 189 195 201 210 233 256 283 308 322 317 313 216 193 180 167 164 154 164
150 155 166 175 166 158 162 160 161 166 170 172 172 172 175 172 176 178 181 186 186 190 194 194 189 197 208 209 213 229 252 276 290 310 298 300 204 201 178 169 173 174 167
145 150 161 178 170 163 167 164 165 168 173 174 178 179 182 178 182 185 186 189 192 196 200 198 194 199 210 223 224 231 242 255 260 244 285 306 199 196 192 186 189 190 177
128 149 159 172 174 166 169 171 173 175 176 177 182 185 186 185 186 192 190 194 196 199 202 204 198 202 212 220 229 239 247 255 262 261 259 268 211 196 195 195 196 197 191
144 161 166 178 178 167 171 179 178 182 183 182 185 192 189 189 191 197 193 197 203 204 209 209 207 206 212 222 229 246 253 235 263 248 244 249 207 202 201 199 196 196 189
163 169 182 189 189 167 176 176 177 182 188 192 187 190 190 181 178 189 200 200 206 208 211 215 212 210 217 205 230 249 255 259 221 223 245 257 197 203 199 199 195 185 182
175 156 171 205 222 176 185 175 180 186 184 194 188 184 175 177 187 196 183 200 199 213 209 217 214 204 207 196 213 233 259 264 269 247 244 231 204 204 200 201 199 181 186
165 172 152 158 180 263 203 188 187 190 197 192 194 180 173 177 185 196 193 195 185 200 192 202 203 202 211 209 207 228 233 231 226 238 232 233 195 205 204 207 200 197 182
140 151 163 153 135 227 267 207 189 207 205 196 183 193 184 189 191 191 203 190 195 178 194 204 204 206 217 222 213 223 237 240 258 246 239 208 189 204 205 207 203 204 200
167 170 182 170 139 231 226 233 193 198 209 196 195 194 194 195 188 200 200 199 195 188 198 204 204 208 218 217 222 228 245 250 250 229 220 212 198 204 211 205 206 210 218
198 194 184 171 170 195 219 220 194 206 205 198 202 192 194 196 192 195 204 203 199 192 196 206 209 211 213 217 225 229 222 241 239 217 202 199 199 206 212 210 207 205 223
186 194 191 187 192 204 211 204 193 197 202 199 199 190 196 198 190 192 201 207 190 187 194 203 203 211 215 218 225 198 214 222 227 200 185 196 205 207 214 213 213 213 214
236 203 198 195 195 201 206 200 194 194 200 197 192 189 197 197 194 189 202 206 179 190 198 197 208 201 204 217 206 208 213 217 220 193 199 189 212 194 207 228 219 221 218
214 233 258 194 196 196 192 177 188 190 207 188 196 199 189 198 196 194 204 201 184 191 197 189 203 201 178 207 217 219 218 223 215 211 215 227 223 213 191 217 223 224 224
276 185 200 232 211 174 160 180 202 209 211 201 207 206 190 196 195 192 205 196 190 202 195 196 184 195 210 168 111 29 259 236 233 235 242 234 229 226 201 219 217 197 235
236 237 216 198 211 196 191 198 192 192 196 209 217 211 194 198 199 194 198 197 198 200 191 181 190 167 187 168 151 125 207 325 311 257 248 236 231 218 205 222 204 208 203
209 221 217 207 196 198 191 134 91 78 65 142 215 211 221 189 195 195 196 192 192 196 197 190 188 179 161 189 192 145 133 220 303 315 315 277 253 162 245 234 201 198 198
223 207 202 202 201 193 172 167 171 191 187 210 194 190 227 201 190 198 183 179 189 193 174 184 183 187 154 162 181 236 84 142 171 315 332 0 258 207 221 228 210 203 193
215 200 206 201 197 201 190 196 199 194 206 171 171 212 239 210 196 185 173 174 169 166 162 167 165 174 169 154 153 172 140 103 90 136 275 299 336 240 243 247 245 208 187
227 211 197 195 205 204 199 197 195 197 194 177 195 210 209 192 174 162 157 162 162 159 167 180 181 172 175 166 143 181 153 153 179 151 206 242 219 297 322 303 241 202 169